Iron Mountain, MI

2:10 PM CDT on September 22, 2017 (GMT -0500)
Ford

Weather History for KIMT - November, 2010

Change the Weather History Date:

Sunday, November 21, 2010

  Actual Average Record
Temperature  
Mean Temperature 30 °F -  
Max Temperature 37 °F 36 °F 60 °F (1982)
Min Temperature 24 °F 20 °F 1 °F (1969)
Degree Days  
Heating Degree Days 34    
Moisture  
Dew Point 32 °F    
Average Humidity 95    
Maximum Humidity 100    
Minimum Humidity 75    
Precipitation  
Precipitation 0.11 in - - ()
Sea Level Pressure  
Sea Level Pressure 29.89 in    
Wind  
Wind Speed 5 mph (ESE)    
Max Wind Speed 9 mph    
Max Gust Speed -    
Visibility 5 miles    
Events Fog , Rain    
Averages and records for this station are not official NWS values.
T = Trace of Precipitation, MM = Missing Value Source: NWS Daily Summary

Daily Weather History Graph

Daily Weather History Graph

Search for Another Location

Airport or City:

Trip Planner

Search our weather history database for the weather conditions in past years. The results will help you decide how hot, cold, wet, or windy it might be!

Date:

Astronomy

Nov. 21, 2010 Rise Set
Actual Time 7:00 AM CST 4:15 PM CST
Civil Twilight 6:27 AM CST 4:48 PM CST
Nautical Twilight 5:51 AM CST 5:25 PM CST
Astronomical Twilight 5:15 AM CST 6:00 PM CST
Moon 4:01 PM CST (11/21) 7:05 AM CST (11/21)
Length of Visible Light 10h 20m
Length of Day
9h 15m
Full, 100% of the Moon is Illuminated
Nov 21
Full
Nov 28
Last Quarter
Dec 5
New
Dec 13
First Quarter
Dec 21
Full

Hourly Weather History & Observations

Time (CST) Temp. Windchill Dew Point Humidity Pressure Visibility Wind Dir Wind Speed Gust Speed Precip Events Conditions
12:54 AM 24.1 °F 17.0 °F 17.1 °F 75% 30.31 in 10.0 mi ENE 5.8 mph - N/A   Overcast
1:54 AM 24.1 °F 16.0 °F 17.1 °F 75% 30.29 in 10.0 mi Variable 6.9 mph - N/A   Overcast
2:54 AM 24.1 °F 15.2 °F 18.0 °F 77% 30.26 in 10.0 mi NE 8.1 mph - N/A   Overcast
3:54 AM 25.0 °F 18.1 °F 19.0 °F 78% 30.22 in 10.0 mi ENE 5.8 mph - N/A   Overcast
4:54 AM 26.1 °F 21.9 °F 21.0 °F 81% 30.21 in 10.0 mi ENE 3.5 mph - N/A   Overcast
5:39 AM 26.6 °F 22.6 °F 21.2 °F 80% 30.11 in 10.0 mi East 3.5 mph - N/A   Overcast
5:54 AM 26.1 °F - 21.9 °F 84% 30.17 in 10.0 mi Calm Calm - N/A   Overcast
6:36 AM 26.6 °F 19.1 °F 24.8 °F 93% 30.08 in 5.0 mi ESE 6.9 mph - 0.00 in Rain Light Freezing Rain
6:54 AM 27.0 °F 21.6 °F 26.1 °F 96% 30.13 in 5.0 mi ESE 4.6 mph - 0.00 in Rain Light Freezing Rain
7:24 AM 28.4 °F 24.6 °F 26.6 °F 93% 30.06 in 9.0 mi Variable 3.5 mph - 0.00 in Rain Light Freezing Rain
7:38 AM 28.4 °F - 26.6 °F 93% 30.06 in 10.0 mi Calm Calm - 0.00 in   Overcast
7:54 AM 28.0 °F 22.8 °F 27.0 °F 96% 30.11 in 10.0 mi East 4.6 mph - 0.00 in   Overcast
8:15 AM 28.4 °F 24.6 °F 28.4 °F 100% 30.05 in 10.0 mi ESE 3.5 mph - 0.00 in   Overcast
8:28 AM 28.4 °F 24.6 °F 28.4 °F 100% 30.04 in 10.0 mi ESE 3.5 mph - 0.00 in   Overcast
8:54 AM 28.9 °F 23.9 °F 28.0 °F 96% 30.08 in 10.0 mi East 4.6 mph - 0.00 in   Overcast
9:06 AM 30.2 °F 24.3 °F 28.4 °F 93% 30.01 in 6.0 mi East 5.8 mph - N/A   Overcast
9:54 AM 30.9 °F 26.2 °F 30.9 °F 100% 30.03 in 3.0 mi ESE 4.6 mph - N/A   Overcast
10:02 AM 32.0 °F 26.4 °F 30.2 °F 93% 29.97 in 2.5 mi ESE 5.8 mph - N/A   Overcast
10:28 AM 32.0 °F 25.6 °F 30.2 °F 93% 29.95 in 1.8 mi ESE 6.9 mph - N/A   Overcast
10:54 AM 32.0 °F 26.4 °F 32.0 °F 100% 29.98 in 1.5 mi ESE 5.8 mph - N/A   Overcast
11:54 AM 34.0 °F 28.8 °F 33.1 °F 96% 29.94 in 1.5 mi SE 5.8 mph - 0.01 in   Overcast
12:54 PM 35.1 °F 30.1 °F 35.1 °F 100% 29.90 in 1.5 mi ESE 5.8 mph - 0.01 in   Overcast
1:54 PM 36.0 °F 29.6 °F 35.1 °F 97% 29.86 in 1.5 mi SE 8.1 mph - 0.01 in   Overcast
2:54 PM 36.0 °F 30.3 °F 36.0 °F 100% 29.82 in 1.5 mi ESE 6.9 mph - 0.01 in Rain Light Rain
3:07 PM 35.6 °F 29.2 °F 35.6 °F 100% 29.76 in 2.0 mi ESE 8.1 mph - 0.00 in Rain Light Rain
3:14 PM 35.6 °F 29.9 °F 35.6 °F 100% 29.76 in 1.8 mi ESE 6.9 mph - 0.01 in Rain Light Rain
3:24 PM 35.6 °F 28.6 °F 35.6 °F 100% 29.75 in 3.0 mi ESE 9.2 mph - 0.01 in Rain Light Rain
3:51 PM 37.4 °F 31.4 °F 35.6 °F 93% 29.74 in 2.0 mi ESE 8.1 mph - 0.02 in   Overcast
3:54 PM 37.0 °F 31.0 °F 36.0 °F 96% 29.78 in 2.0 mi ESE 8.1 mph - 0.02 in   Overcast
4:07 PM 37.4 °F 32.1 °F 35.6 °F 93% 29.74 in 4.0 mi ESE 6.9 mph - 0.00 in Rain Light Rain
4:54 PM 37.0 °F 34.5 °F 37.0 °F 100% 29.78 in 4.0 mi SE 3.5 mph - 0.02 in   Overcast
5:39 PM 37.4 °F - 37.4 °F 100% 29.72 in 2.0 mi Calm Calm - 0.01 in   Overcast
5:54 PM 37.0 °F 34.5 °F 37.0 °F 100% 29.76 in 2.5 mi ESE 3.5 mph - 0.01 in Rain Light Rain
6:18 PM 37.4 °F 33.8 °F 37.4 °F 100% 29.70 in 4.0 mi SSE 4.6 mph - 0.01 in Rain Light Rain
6:43 PM 37.4 °F 34.9 °F 37.4 °F 100% 29.70 in 1.8 mi SSE 3.5 mph - 0.01 in   Overcast
6:54 PM 37.0 °F 34.5 °F 37.0 °F 100% 29.73 in 1.0 mi SE 3.5 mph - 0.01 in Rain Light Rain
7:26 PM 37.4 °F - 37.4 °F 100% 29.69 in 0.5 mi Calm Calm - 0.00 in Fog Fog
7:54 PM 37.0 °F - 37.0 °F 100% 29.73 in 0.5 mi Calm Calm - 0.00 in Fog Fog
8:03 PM 37.4 °F - 37.4 °F 100% 29.69 in 0.2 mi Calm Calm - N/A Fog Fog
8:54 PM 37.0 °F - 37.0 °F 100% 29.73 in 0.2 mi Calm Calm - 0.01 in Fog Fog
9:15 PM 37.4 °F - 37.4 °F 100% 29.70 in 0.5 mi Calm Calm - N/A Fog Fog
9:43 PM 37.4 °F - 37.4 °F 100% 29.70 in 1.0 mi Calm Calm - N/A   Overcast
9:54 PM 37.0 °F - 37.0 °F 100% 29.74 in 1.0 mi Calm Calm - N/A   Overcast
10:15 PM 37.4 °F - 37.4 °F 100% 29.69 in 2.5 mi Calm Calm - N/A   Overcast
10:28 PM 37.4 °F - 37.4 °F 100% 29.69 in 5.0 mi Calm Calm - N/A   Overcast
10:43 PM 35.6 °F 32.8 °F 35.6 °F 100% 29.69 in 4.0 mi NW 3.5 mph - N/A   Overcast
10:54 PM 36.0 °F - 36.0 °F 100% 29.74 in 2.5 mi Calm Calm - N/A   Overcast
11:11 PM 37.4 °F 33.8 °F 37.4 °F 100% 29.68 in 9.0 mi NNW 4.6 mph - N/A   Overcast
11:54 PM 37.0 °F - 37.0 °F 100% 29.74 in 10.0 mi Calm Calm - N/A   Overcast